Wind_Speed
89 90 90 90 91 91 92 93 94 95 96 98 99 99 100 101 101 102 102 103 104 106 107 109 111 112 112 112 113 115 116 117 119 121 123 124 124 124 124 124 123 123
90 90 90 90 91 91 92 93 94 95 97 98 99 101 102 102 103 103 104 105 106 107 109 110 111 113 114 114 114 115 116 118 120 122 124 126 127 128 128 128 128 127
91 91 91 91 91 92 93 94 95 96 97 98 100 101 103 104 105 106 107 108 109 110 111 112 113 114 116 117 117 117 117 118 120 123 125 127 129 131 131 131 131 131
93 92 92 92 93 93 94 95 96 97 98 99 100 102 103 105 107 108 110 111 112 113 114 115 116 117 118 119 120 121 120 120 120 123 125 128 130 132 133 135 135 135
94 94 94 94 94 95 96 96 98 99 100 101 102 103 105 106 108 110 112 113 115 116 117 119 119 120 121 122 122 123 123 124 123 124 125 128 131 133 134 136 137 138
96 96 95 95 96 96 97 98 99 100 101 102 103 105 106 107 109 111 112 114 116 117 118 120 121 122 122 123 124 124 125 126 126 126 126 127 130 133 135 136 138 140
98 98 98 98 98 98 99 100 101 101 102 103 104 105 106 107 109 110 112 113 115 116 118 119 120 121 122 123 124 125 125 126 127 128 128 129 131 133 136 137 138 139
100 100 100 100 100 101 102 102 103 103 104 105 105 106 106 107 108 109 110 111 113 114 115 117 118 119 120 122 123 124 125 126 127 128 129 130 132 134 136 138 139 139
101 101 101 102 102 103 103 103 104 104 104 104 105 105 105 105 106 106 107 108 109 110 111 112 113 115 116 118 119 120 122 123 125 126 127 128 131 133 135 138 139 139
101 101 101 101 101 101 101 101 101 101 100 100 100 100 101 101 101 101 102 102 103 104 105 106 107 109 110 111 113 114 116 118 120 122 123 125 127 129 132 135 137 139
99 99 98 98 97 97 97 97 96 96 96 96 96 96 97 97 97 98 98 99 100 100 101 102 103 104 105 106 108 109 110 112 114 116 118 120 122 125 127 130 133 135
96 94 93 93 92 92 93 93 93 93 93 94 94 95 95 96 96 97 97 98 98 99 100 100 101 102 103 103 104 105 106 107 109 110 112 114 117 119 122 125 127 130
92 91 90 90 90 90 90 91 91 92 92 93 94 94 95 95 96 97 97 97 98 98 99 100 100 101 102 102 103 103 104 105 106 107 108 110 112 114 117 119 121 124
90 90 89 89 90 90 90 91 91 92 93 94 94 95 95 96 96 97 97 97 98 98 99 99 100 100 101 102 102 102 103 103 104 105 106 107 108 110 112 114 116 118
91 90 90 91 91 91 91 92 92 93 93 94 94 95 95 96 96 97 97 98 98 99 99 99 100 100 101 101 101 102 102 102 103 104 104 105 106 107 109 110 111 113
91 91 91 91 92 92 92 92 92 93 93 93 93 94 94 95 95 96 96 97 97 98 98 99 99 100 101 101 101 101 101 101 102 102 103 104 104 105 106 108 109 109
92 92 91 91 91 91 91 91 91 91 91 91 92 92 92 93 93 94 94 94 95 95 96 97 98 99 99 100 100 100 100 100 101 101 102 103 103 104 104 105 106 107
92 91 91 90 90 90 90 90 90 90 90 90 90 90 90 90 91 91 92 92 93 93 94 95 96 97 97 98 98 98 98 98 98 99 100 101 102 102 102 103 104 105
92 91 91 90 90 90 90 89 89 88 88 88 88 88 88 89 89 90 90 90 91 91 92 93 94 95 96 96 96 96 96 96 95 96 97 98 98 99 100 101 102 103
92 91 91 90 90 90 89 88 88 87 87 87 87 87 88 88 88 88 88 89 89 89 90 90 92 93 94 94 94 94 95 94 94 94 95 95 96 96 97 98 99 100
92 91 91 90 90 89 88 87 86 86 86 86 87 87 87 88 88 87 87 88 88 88 88 88 90 91 91 92 92 92 93 92 92 92 93 94 94 95 95 96 97 99
91 91 90 89 89 88 87 87 87 87 87 87 87 87 87 87 87 87 87 87 87 87 87 87 88 89 90 90 90 90 90 89 89 89 90 91 92 93 94 94 96 98
91 91 90 89 88 88 87 87 87 87 87 87 87 87 87 87 87 87 87 87 87 86 86 86 87 88 88 88 88 88 87 86 85 85 86 87 88 89 91 92 95 97
92 92 91 90 89 88 88 88 87 87 87 87 87 87 87 87 87 87 87 86 86 86 85 85 85 86 86 86 86 85 83 82 81 81 81 82 83 85 87 89 92 94
93 92 91 90 89 88 88 87 87 87 87 87 87 86 86 86 86 86 86 86 86 85 85 84 84 85 86 86 85 83 81 79 78 78 78 79 80 82 84 86 88 90
92 91 90 89 89 88 87 87 87 87 87 86 86 86 85 85 85 85 84 84 85 85 84 84 84 84 86 86 85 83 81 79 78 78 77 78 79 81 83 85 86 87
Wind_Direction
282 280 278 277 275 274 273 272 271 270 269 268 268 268 268 269 269 269 269 269 268 268 267 266 265 263 262 261 260 260 259 258 257 256 256 256 256 257 257 257 257 257
282 280 279 277 276 274 273 272 270 270 269 268 267 267 267 267 267 267 268 268 268 268 267 267 266 265 264 262 261 260 259 258 258 257 256 255 255 255 256 256 256 256
285 282 280 278 277 275 274 273 272 271 270 269 268 268 267 267 266 266 266 267 267 267 267 267 266 266 265 264 262 261 260 259 258 257 256 255 254 254 254 255 255 256
287 285 283 281 279 278 276 275 274 273 272 271 270 269 268 268 267 266 266 266 266 266 266 266 266 265 265 264 263 262 261 260 259 258 257 256 255 254 254 254 254 254
290 288 286 284 282 280 279 277 276 275 274 273 272 271 270 269 268 267 267 266 265 265 265 265 265 265 264 264 263 262 261 261 260 259 258 257 256 255 254 253 253 253
291 290 288 286 284 283 281 280 278 277 276 275 274 273 272 271 270 269 268 268 267 266 265 265 265 264 264 264 263 263 262 261 260 259 258 257 257 256 255 254 253 253
292 291 289 288 286 284 283 281 280 279 277 276 275 274 273 272 271 270 270 269 268 268 267 266 265 265 264 264 264 263 262 261 261 260 259 258 257 257 257 256 255 254
292 291 290 288 287 285 284 282 281 280 279 278 277 275 274 273 272 272 271 270 269 269 268 267 267 266 265 265 264 264 263 262 262 261 260 259 258 258 258 258 258 256
292 290 289 287 286 285 283 282 281 280 279 279 278 277 276 275 274 273 272 272 271 270 269 269 268 267 267 266 265 265 264 263 263 262 261 260 259 259 259 259 260 259
291 289 288 286 285 284 283 283 282 281 280 279 278 278 277 276 275 275 274 273 272 271 271 270 269 268 268 267 266 266 265 264 264 263 262 262 261 260 260 260 260 260
290 289 287 287 286 285 284 283 282 281 281 280 279 278 278 277 276 275 275 274 273 272 272 271 271 270 269 269 268 267 266 265 264 264 263 262 262 261 260 260 260 260
290 289 288 287 286 284 283 282 282 281 280 280 279 278 278 277 276 276 275 275 274 274 273 273 272 271 270 270 269 268 267 266 266 265 264 263 263 262 261 260 260 260
290 289 288 286 285 284 283 282 281 281 280 280 279 279 278 278 277 277 276 276 275 275 274 273 273 272 271 271 270 269 268 268 267 266 265 265 264 263 262 262 261 260
290 289 287 286 285 284 283 282 282 281 281 280 280 279 279 279 278 278 277 277 276 275 274 274 273 272 272 271 270 270 269 268 268 267 267 266 265 264 264 263 262 262
290 288 287 286 285 284 284 283 282 282 281 281 280 280 280 279 279 278 278 277 276 275 275 274 273 273 272 271 271 270 269 269 268 268 267 266 266 265 265 264 263 263
289 288 287 286 285 285 284 283 283 282 281 281 280 280 279 279 278 278 277 276 276 275 275 274 273 272 272 271 270 270 269 269 269 268 267 267 266 266 265 265 265 264
288 287 286 286 285 285 284 283 283 282 282 281 281 280 280 279 278 278 277 277 276 275 275 274 274 273 272 271 271 270 270 269 269 269 268 268 267 267 266 266 265 265
288 288 287 286 286 285 284 284 283 283 283 282 282 281 280 279 279 278 278 277 277 276 276 275 275 274 274 273 272 272 271 270 269 269 268 268 268 268 267 267 266 266
290 289 289 288 287 286 286 285 285 284 284 283 282 281 281 280 279 278 278 277 277 276 276 276 275 275 274 274 273 273 272 272 271 270 270 269 269 268 268 268 267 267
291 290 290 289 288 288 287 287 286 286 285 284 283 283 282 281 280 280 279 278 278 277 276 276 275 275 274 274 273 273 272 272 272 271 271 270 270 269 269 268 268 267
292 291 290 290 289 288 288 288 287 287 286 285 285 284 283 283 282 282 281 280 279 278 278 277 276 275 275 274 273 272 272 272 272 271 271 271 270 270 269 269 268 268
292 291 290 290 290 289 289 289 288 288 287 287 286 285 285 284 284 283 282 282 281 280 279 279 278 276 275 274 273 272 272 271 271 271 270 270 270 269 269 268 268 267
292 292 291 291 291 290 290 289 289 288 288 287 287 286 286 286 285 285 284 283 283 282 281 280 279 278 277 275 274 273 272 271 271 270 269 269 268 268 268 267 266 266
293 292 292 291 291 291 290 290 290 289 289 288 288 288 287 287 286 286 285 285 284 283 282 282 281 280 279 278 276 275 274 273 272 271 270 269 268 268 267 266 265 265
293 292 292 292 291 291 291 290 290 290 289 289 288 288 288 287 287 287 286 286 285 285 284 283 282 282 281 280 279 278 276 275 274 273 272 271 270 269 268 267 266 265
292 292 292 292 292 292 291 291 290 290 290 289 289 288 288 288 287 287 287 286 286 286 285 284 283 283 282 281 281 280 279 278 277 276 275 274 273 272 270 269 268 267
Height
10510 10507 10505 10503 10502 10500 10499 10497 10495 10494 10492 10490 10487 10485 10483 10481 10479 10478 10476 10474 10473 10471 10470 10470 10470 10470 10470 10471 10471 10471 10472 10472 10472 10472 10473 10475 10475 10476 10477 10479 10480 10481
10494 10492 10489 10487 10486 10484 10482 10480 10479 10477 10475 10473 10471 10469 10467 10465 10463 10462 10459 10457 10455 10453 10452 10451 10451 10451 10451 10451 10452 10452 10453 10453 10454 10454 10454 10455 10456 10457 10458 10460 10461 10462
10477 10475 10472 10470 10468 10466 10465 10463 10461 10459 10457 10455 10454 10452 10450 10448 10446 10444 10442 10439 10437 10435 10434 10433 10432 10431 10431 10430 10431 10432 10433 10434 10434 10434 10435 10435 10436 10438 10439 10440 10442 10443
10459 10456 10454 10452 10450 10448 10446 10444 10442 10440 10438 10437 10435 10433 10431 10429 10427 10424 10422 10420 10418 10416 10414 10413 10412 10411 10410 10410 10409 10410 10411 10412 10413 10414 10414 10414 10415 10418 10419 10420 10422 10423
10440 10438 10435 10433 10431 10429 10427 10424 10422 10420 10418 10416 10415 10413 10411 10408 10406 10404 10401 10399 10397 10395 10394 10392 10391 10390 10390 10389 10389 10389 10389 10390 10391 10393 10394 10394 10393 10395 10398 10400 10402 10403
10421 10419 10417 10414 10412 10410 10407 10405 10402 10400 10398 10396 10394 10392 10390 10388 10385 10383 10380 10378 10376 10374 10373 10371 10370 10370 10369 10369 10368 10368 10368 10369 10370 10371 10372 10373 10372 10372 10375 10378 10381 10383
10404 10401 10398 10396 10393 10390 10387 10385 10382 10380 10378 10376 10374 10372 10370 10367 10365 10362 10359 10357 10355 10353 10352 10351 10350 10349 10349 10349 10348 10347 10347 10347 10348 10349 10350 10351 10351 10351 10351 10353 10358 10361
10387 10384 10381 10378 10374 10371 10368 10365 10362 10359 10357 10354 10352 10350 10348 10346 10343 10341 10339 10337 10335 10333 10332 10331 10330 10329 10328 10328 10328 10327 10327 10326 10327 10329 10330 10330 10331 10330 10330 10330 10333 10338
10370 10367 10363 10359 10355 10351 10348 10345 10342 10340 10337 10334 10332 10329 10327 10325 10323 10321 10318 10317 10315 10313 10312 10311 10310 10309 10308 10308 10308 10308 10308 10307 10307 10308 10310 10311 10311 10311 10310 10309 10311 10314
10353 10349 10345 10341 10337 10333 10330 10326 10323 10321 10318 10315 10313 10310 10307 10305 10303 10301 10299 10297 10296 10294 10292 10291 10290 10289 10289 10288 10288 10288 10289 10289 10289 10288 10289 10291 10292 10292 10292 10291 10291 10293
10335 10331 10327 10323 10320 10316 10312 10309 10306 10303 10300 10297 10295 10292 10290 10287 10285 10283 10281 10279 10277 10276 10274 10273 10272 10271 10270 10269 10269 10269 10270 10270 10270 10270 10269 10270 10271 10271 10272 10272 10273 10274
10318 10315 10312 10308 10304 10300 10297 10294 10291 10288 10284 10281 10278 10276 10273 10271 10268 10266 10264 10262 10261 10259 10257 10256 10254 10253 10252 10252 10251 10251 10251 10251 10251 10251 10251 10251 10251 10251 10251 10252 10253 10255
10302 10300 10296 10293 10289 10285 10282 10279 10276 10273 10269 10266 10263 10260 10258 10255 10253 10250 10249 10247 10245 10243 10241 10240 10238 10236 10235 10234 10234 10234 10233 10233 10233 10233 10234 10234 10233 10232 10231 10232 10234 10236
10286 10283 10280 10276 10273 10269 10266 10263 10260 10257 10254 10250 10248 10245 10243 10240 10238 10235 10233 10231 10229 10227 10225 10223 10221 10219 10218 10217 10217 10217 10216 10216 10216 10216 10216 10217 10216 10215 10214 10214 10215 10217
10270 10267 10264 10260 10257 10254 10251 10248 10245 10241 10238 10236 10233 10231 10228 10226 10223 10220 10217 10215 10212 10210 10208 10207 10205 10203 10201 10200 10200 10200 10200 10199 10199 10199 10198 10198 10198 10197 10196 10196 10197 10199
10255 10252 10249 10245 10242 10239 10236 10233 10229 10227 10224 10221 10219 10217 10214 10211 10208 10205 10202 10200 10197 10195 10192 10190 10188 10186 10184 10183 10183 10183 10183 10183 10183 10182 10181 10180 10181 10181 10180 10179 10179 10181
10240 10237 10234 10231 10228 10225 10221 10218 10215 10212 10210 10207 10204 10201 10199 10196 10192 10189 10187 10184 10182 10180 10177 10174 10172 10169 10167 10167 10166 10166 10168 10168 10168 10166 10164 10163 10164 10164 10165 10164 10162 10163
10225 10222 10219 10216 10213 10209 10206 10203 10200 10198 10195 10192 10189 10186 10183 10180 10177 10174 10171 10169 10167 10164 10162 10159 10156 10153 10151 10150 10150 10150 10151 10152 10153 10152 10150 10148 10148 10148 10149 10149 10148 10147
10209 10206 10203 10200 10197 10193 10190 10187 10184 10182 10179 10176 10173 10170 10167 10164 10161 10159 10157 10154 10152 10150 10148 10145 10141 10138 10136 10135 10135 10135 10134 10136 10137 10136 10135 10134 10134 10134 10134 10133 10133 10132
10193 10190 10186 10183 10180 10177 10174 10171 10169 10166 10163 10160 10157 10154 10151 10148 10145 10143 10141 10139 10137 10135 10133 10130 10126 10123 10121 10120 10120 10119 10119 10120 10121 10121 10120 10120 10119 10118 10118 10118 10116 10116
10178 10174 10171 10168 10164 10161 10159 10156 10153 10150 10147 10144 10142 10139 10135 10132 10130 10128 10126 10123 10121 10120 10118 10115 10111 10108 10106 10105 10104 10104 10104 10105 10107 10107 10106 10105 10104 10102 10103 10102 10100 10099
10163 10160 10156 10153 10150 10147 10144 10142 10138 10135 10132 10130 10127 10124 10120 10117 10115 10113 10110 10108 10105 10104 10103 10100 10096 10092 10090 10089 10088 10088 10090 10092 10093 10094 10092 10090 10088 10087 10088 10087 10084 10081
10148 10144 10141 10138 10135 10132 10129 10127 10123 10120 10118 10116 10113 10109 10106 10103 10100 10098 10095 10093 10090 10088 10087 10085 10081 10076 10074 10073 10071 10072 10075 10078 10079 10080 10078 10076 10074 10073 10072 10070 10066 10064
10132 10129 10126 10123 10121 10118 10115 10112 10109 10106 10104 10101 10098 10096 10092 10088 10085 10083 10080 10077 10075 10073 10071 10069 10066 10061 10057 10056 10055 10056 10060 10063 10064 10064 10063 10061 10060 10058 10055 10052 10049 10047
10117 10114 10112 10109 10107 10104 10101 10098 10095 10092 10089 10087 10084 10082 10079 10074 10071 10069 10066 10062 10059 10057 10055 10053 10051 10046 10042 10040 10039 10041 10044 10047 10049 10049 10047 10046 10044 10042 10038 10035 10033 10032
10104 10101 10099 10096 10093 10091 10087 10084 10081 10078 10075 10073 10070 10067 10065 10061 10058 10055 10053 10049 10044 10041 10039 10037 10035 10032 10027 10024 10024 10026 10029 10032 10033 10033 10032 10031 10028 10025 10022 10019 10018 10018